Regional Weather Roundup
Issued by NWS Charleston, SC

Home | Current Version | Previous Version | Text Only | Print | Product List | Glossary On
Versions: 1 2 3 4 5 6 7 8 9 10 11 12 13 14 15 16 17 18 19 20 21 22 23 24 25 26 27 28 29 30 31 32 33 34 35 36 37 38 39 40 41 42 43 44 45 46 47 48 49 50
000
ASUS42 KCHS 252227
RWRCHS

REGIONAL WEATHER ROUNDUP
NATIONAL WEATHER SERVICE CHARLESTON SC
600 PM EDT TUE JUL 25 2017

NOTE: "FAIR" INDICATES FEW OR NO CLOUDS BELOW 12,000 FEET WITH NO
SIGNIFICANT WEATHER AND/OR OBSTRUCTIONS TO VISIBILITY.

NOT ALL STATIONS ARE QUALITY CONTROLLED. USE DATA WITH CAUTION...
ESPECIALLY DEWPOINT OBSERVATIONS.

SCZ027-030-031-034>040-042>050-252300-
...SOUTHEAST SOUTH CAROLINA...

CITY           SKY/WX    TMP DP  RH WIND       PRES   REMARKS
N CHARLESTON   CLOUDY    78  69  73 W9        30.04S
WATERFRONT PRK   N/A     83  78  84 VRB3      30.01F HX  93
JOHNS ISLAND   FAIR      84  79  84 SW3       30.04S HX  96
PINOPOLIS        N/A     93  70  46 CALM      29.94F HX  99
MONCKS CORNER  FAIR      84  73  70 S6        30.03R HX  91
SUMMERVILLE    FAIR      81  70  69 S5        30.04R
BEAUFORT MCAS  TSTM      80  74  81 W10       30.07R
BEAUFORT ARPT  MOCLDY    81  77  89 W8        30.06R
HILTON HEAD IS NOT AVBL
WALTERBORO     NOT AVBL
ALLENDALE      NOT AVBL

...SOUTHERN MIDLANDS AND PEE DEE...

CITY           SKY/WX    TMP DP  RH WIND       PRES   REMARKS
GEORGETOWN     FAIR      88  79  74 S8        30.03S HX 102
KINGSTREE      FAIR      90  73  58 SE6       30.01S HX  98
ORANGEBURG     SUNNY     91  72  53 CALM      30.02F HX  98
BARNWELL       FAIR      91  77  62 S7        30.05R HX 105
AIKEN          CLOUDY    91  73  55 SW3       30.07S HX 100
MANNING        FAIR      90  72  55 SW5       30.02S HX  96
COLUMBIA       PTSUNNY   94  73  50 SE6       30.00S THUNDER HX 103
SUMTER         MOSUNNY   90  73  58 SE3       29.99S THUNDER HX  98
FLORENCE       MOSUNNY   90  75  61 SE5       30.01F HX 100
MYRTLE BEACH   NOT AVBL
N MYRTLE BEACH SUNNY     83  76  79 SW8       30.03S HX  91

$$

GAZ063-065-086>088-099>101-113>116-118-119-134>141-150-252300-
...SOUTHEAST GEORGIA...

CITY           SKY/WX    TMP DP  RH WIND       PRES   REMARKS
SAVANNAH ARPT  TSTM      77  75  93 S8        30.07R
HUNTER AAF     LGT RAIN  75  73  94 NW3       30.04F FOG
FORT STEWART   CLOUDY    80  73  80 NE7       30.03S
STATESBORO     TSTM      74  74 100 CALM      30.10R
SYLVANIA       DRIZZLE   75  75  98 CALM      30.09R
CLAXTON        CLOUDY    76  75  95 NW6       30.08R

...CSRA...CENTRAL AND FAR SOUTHEAST GEORGIA...

CITY           SKY/WX    TMP DP  RH WIND       PRES   REMARKS
THOMSON        PTSUNNY   89  76  64 W6        30.10S HX 100
AUGUSTA-BUSH   CLOUDY    94  76  55 E7        30.02R HX 106
AUGUSTA-DANIEL CLOUDY    93  70  46 VRB3      30.03F HX  99
SWAINSBORO     TSTM      73  73 100 E12G17    30.13R
VIDALIA        CLOUDY    81  77  89 NE13G20   30.08R
EASTMAN        FAIR      77  77 100 CALM      30.09S
HAZLEHURST     FAIR      82  76  84 N10       30.05R
ALMA           MOSUNNY   92  73  53 W6        30.02F HX 100
WAYCROSS       PTSUNNY   94  78  59 W7        30.02S HX 109
JESUP          NOT AVBL
BAXLEY         TSTM      88  82  84 NE7       30.03S HX 108
BRUNSWICK      MOSUNNY   88  79  74 SE10      30.04F HX 102
SAINT SIMONS   MOSUNNY   87  76  69 S13       30.02F HX  97

$$

SCZ027-028-034-036>038-045-046-048>050-GAZ119-141-252300-
...LAKE AND SUPPLEMENTAL COASTAL OBSERVATIONS...

STATION/POSITION TIME  TEMP    WIND        PRES    WAVE   SWELL
                       AIR SEA DIR/SP/G            HT/PER HT/PER/DIR
                 (UTC) (F)     (DEG/KT/KT) (MB)    (FT/S) (FT/S/D)
WINYAH BAY       2145   87     190/  8     1016.0F
LAKE MURRAY      2120   92     190/  3/  3 1015.2
ACE BASIN NERRS  2145   86        CALM     1017.0S
FORT PULASKI     2200   81 86  290/ 13/ 15 1018.2
SAPELO ISLAND    2200   89     160/ 11     1017.0

$$

ANZ835-935-AMZ111-154-330-350-352-354-370-450-454-472-252300-
...C-MAN AND BUOY OBSERVATIONS...

STATION/POSITION TIME  TEMP    WIND        PRES    WAVE   SWELL
                       AIR SEA DIR/SP/G            HT/PER HT/PER/DIR
                 (UTC) (F)     (DEG/KT/KT) (MB)    (FT/S) (FT/S/D)
BUOY 41004       2210   81 83  210/ 12/ 14 1016.9
BUOY 41008       2150   82 82  170/ 12/ 14 1017.0R   2/ 9   2/ 90/ 9
FOLLY BEACH CMAN 2200   83     220/  9/ 11 1017.8F
CAPERS NEARSHORE 2208   81 85  220/ 12/ 16 1016.9S
FRIPP NEARSHORE  2208   84 86  230/ 10/ 14 1017.4R


STATION/POSITION TIME  TEMP    WIND        PRES    WAVE   SWELL
                       AIR SEA DIR/SP/G            HT/PER HT/PER/DIR
                 (UTC) (F)     (DEG/KT/KT) (MB)    (FT/S) (FT/S/D)
5E ST. MARYS GA  2200      79                N/A     2/ 9
FRYING PAN BUOY  2210   83 83  210/ 10/ 12 1016.6
BUOY 41025       2150   80 84   20/ 14/ 16 1017.7F   3/ 7   2/160/ 7
CAPE LOOKOUT NC  2200   83     220/  6/  7 1017.0S
BUOY 41002       2150   82 83  190/  8/ 10 1019.3F   4/ 6   3/210/ 6
BUOY 41010       2210   85 85  180/  6/  8 1019.0
ST AUGUSTINE FL  2200   80 78  170/  9/  9 1018.4F


$$




USA.gov is the U.S. government's official web portal to all federal, state and local government web resources and services.